Location: Unspecified
(0.0000°N, 0.0000°E)
Time: 07:13:44
(UTC+00:00)

N. Korean satellite - Pass Details

Date: 23 July 2021
Orbit: 451 x 498 km, 97.2° (Epoch: 31 July)

Event Time Altitude Azimuth Distance (km) Brightness Sun altitude
Rises 05:09:53 0° 1° (N) 2,512 10.5 -13.3°
Reaches altitude 10° 05:12:00 10° 355° (N) 1,630 9.4 -12.8°
Maximum altitude 05:15:21 45° 281° (W) 641 6.8 -12.0°
Drops below altitude 10° 05:18:41 10° 207° (SSW) 1,613 8.8 -11.2°
Enters shadow 05:18:57 - 206° (SSW) 1,718 8.9 -11.2°
